Location: �terpigny
(49.8910°N, 2.9249°E)
Time: 03:39:27
(UTC+00:00)

Cosmos 332 Rocket - Pass Details

Date: 07 June 2022
Orbit: 681 x 703 km, 74.0° (Epoch: 05 July)

Event Time Altitude Azimuth Distance (km) Brightness Sun altitude
Exits shadow 00:12:16 - 247° (WSW) 2,252 6.2 -17.2°
Reaches altitude 10° 00:12:40 10° 250° (WSW) 2,123 6.0 -17.2°
Maximum altitude 00:16:41 26° 307° (NW) 1,329 5.6 -17.1°
Drops below altitude 10° 00:20:45 10° 5° (N) 2,140 7.6 -17.0°
Sets 00:23:24 0° 18° (NNE) 3,062 8.8 -16.9°
